Location: Oberwangen
(47.4286°N, 8.9679°E)
Time: 07:24:43
(UTC+00:00)

Cosmos 2237 Rocket - Pass Details

Date: 20 June 2021
Orbit: 834 x 850 km, 71.0° (Epoch: 04 August)

Event Time Altitude Azimuth Distance (km) Brightness Sun altitude
Exits shadow 20:41:22 12° 128° (SE) 2,307 3.9 -10.1°
Maximum altitude 20:43:57 16° 98° (E) 2,058 3.8 -10.3°
Drops below altitude 10° 20:47:12 10° 62° (ENE) 2,452 4.5 -10.7°
Sets 20:50:34 0° 42° (NE) 3,392 5.5 -11.0°
